Regional Weather Roundup
Issued by NWS Kansas City/Pleasant Hill, MO

Home | Current Version | Previous Version | Text Only | Print | Product List | Glossary On
Versions: 1 2 3 4 5 6 7 8 9 10 11 12 13 14 15 16 17 18 19 20 21 22 23 24 25 26 27 28 29 30 31 32 33 34 35 36 37 38 39 40 41 42 43 44 45 46 47 48 49 50
000
ASUS43 KEAX 020811
RWREAX

WEATHER ROUNDUP FOR EASTERN KANSAS AND NORTHWEST MISSOURI
NATIONAL WEATHER SERVICE KANSAS CITY/PLEASANT HILL MO
300 AM CDT SAT AUG 02 2014

KSZ040-057-103>105-MOZ028-029-037-043-020900-
...KANSAS CITY METROPOLITAN AREA...

CITY           SKY/WX    TMP DP  RH WIND       PRES   REMARKS
K.C. INTL      CLEAR     71  61  70 E7        30.10F
K.C. DOWNTOWN  CLEAR     69  62  78 E6        30.09S
LEES SUMMIT    CLEAR     68  61  78 SE3       30.11S
OLATHE - IXD   PTCLDY    69  62  78 E3        30.11S
OLATHE - OJC   CLEAR     68  61  78 SE5       30.10S
LAWRENCE       MOCLDY    68  63  84 E3        30.10S

$$

MOZ001>008-011>017-020>025-030>033-038>040-044>046-053-054-020900-
...NORTHERN AND CENTRAL MISSOURI...

CITY           SKY/WX    TMP DP  RH WIND       PRES   REMARKS
ST. JOSEPH     CLEAR     61  59  93 W5        30.11S
MOSBY          SUNNY     63  61  94 CALM      30.10S
WARRENSBURG    CLEAR     61  59  94 CALM      30.10R FOG
WHITEMAN AFB   CLEAR     64  53  67 VRB1      30.10S
CLINTON        CLEAR     63  61  94 CALM      30.10S
SEDALIA        CLEAR     65  60  84 SE3       30.11S
WARSAW         NOT AVBL
MARSHALL       CLEAR     64  64 100 CALM      30.11S
CHILLICOTHE      N/A     62  59  90 NW3       30.11F
MOBERLY        CLEAR     61  57  88 CALM      30.12S
KIRKSVILLE     FOG       57  56  96 CALM      30.12S VSB 1/2

$$

MOZ041-047>049-056>058-063>065-088>090-097-020900-
...EASTERN AND SOUTHERN MISSOURI...

CITY           SKY/WX    TMP DP  RH WIND       PRES   REMARKS
ST. LOUIS INTL PTCLDY    66  61  84 CALM      30.09S
SPIRIT OF STL  FOG       63  63 100 CALM      30.08S VSB 1/4
COLUMBIA       CLEAR     61  60  97 CALM      30.10S FOG
JEFFERSON CITY CLEAR     62  60  93 CALM      30.08F
MEXICO         FOG      N/A N/A N/A CALM      30.11S VSB 1/2
ROLLA          CLEAR     64  60  87 E5        30.08F
LEBANON        CLEAR     64  59  82 CALM      30.11S
OSAGE BEACH      N/A     63  57  82 CALM      30.09F
SPRINGFIELD    CLOUDY    70  63  78 CALM      30.10R
BRANSON        MOCLDY    64  63  94 CALM      30.11R
NEVADA         PTCLDY    63  63 100 NE3       30.11S
JOPLIN         CLEAR     65  63  93 CALM      30.09S
WEST PLAINS    PTCLDY    64  61  90 CALM      30.11S

$$

IAZ060-094-KSZ022-034>040-054-083-096-NEZ052-066-093-020900-
...KANSAS...SOUTHEAST NEBRASKA AND IOWA...

CITY           SKY/WX    TMP DP  RH WIND       PRES   REMARKS
TOPEKA         PTCLDY    68  64  87 NE6       30.10R
MANHATTAN      CLEAR     71  64  78 CALM      30.07S
EMPORIA        CLOUDY    70  64  81 CALM      30.09S
CHANUTE        PTCLDY    62  61  96 SE3       30.09S
WICHITA        PTCLDY    67  63  87 S5        30.08S
OMAHA          MOCLDY    63  60  90 NW5       30.12R
LINCOLN        PTCLDY    61  57  87 CALM      30.13R
FALLS CITY     CLEAR     67  63  87 CALM      30.10S
LAMONI         CLEAR     64  61  90 CALM      30.12S
DES MOINES     CLEAR     66  59  78 CALM      30.11S

$$




USA.gov is the U.S. government's official web portal to all federal, state and local government web resources and services.